Tracking 22458 objects as of 2-Mar-2021
HD Live streaming from Space Station
objects crossing your sky now

CZ-3C DEB

Track CZ-3C DEB now!


NORAD ID: 42477
Int'l Code: 2012-008AM
Perigee: 418.1 km
Apogee: 33,085.2 km
Inclination: 19.6 °
Period: 583.2 minutes
Semi major axis: 23122 km
RCS: Unknown
Launch date: February 24, 2012
Source: People's Republic of China (PRC)
Launch site: Xichang Space Center, China (XSC)

Note: This is SATELLITE DEBRIS
aabbcc
Your satellite tracking list
Your tracking list is empty




NASA's NSSDC Master Catalog

Two Line Element Set (TLE):
1 42477U 12008AM  21059.34760487 -.00000080  00000-0  40382-3 0  9990
2 42477  19.5685 151.0530 7063858  59.4583 351.3686  2.46914499 56355
Source of the keplerian elements: AFSPC